Location: Ariel
(45.9570°N, 122.5700°W)
Time: 22:14:32
(UTC-07:00)

Altair - Pass Details

Date: 24 July 2019
Orbit: 1501 x 1683 km, 47.2° (Epoch: 19 August)

Event Time Altitude Azimuth Distance (km) Brightness Sun altitude
Rises 14:08:32 0° 260° (W) 4,642 10.2 61.7°
Reaches altitude 10° 14:11:33 10° 261° (W) 3,654 9.9 61.5°
Maximum altitude 14:20:45 85° 351° (N) 1,513 8.7 60.7°
Drops below altitude 10° 14:30:05 10° 81° (E) 3,696 9.4 59.8°
Sets 14:33:09 0° 83° (E) 4,697 9.8 59.5°
